Change the Weather History Date:

Friday, January 17, 2014

  Actual Average (KDFW) Record (KDFW)
Temperature  
Mean Temperature 44 °F 46 °F  
Max Temperature 51 °F 56 °F 79 °F (1952)
Min Temperature 37 °F 35 °F 2 °F (1930)
Degree Days  
Heating Degree Days 20 19  
Month to date heating degree days 334  
Since 1 July heating degree days 1246  
Cooling Degree Days 0 0  
Month to date cooling degree days 0  
Year to date cooling degree days 0  
Moisture  
Dew Point 15 °F    
Average Humidity 30    
Maximum Humidity 44    
Minimum Humidity 19    
Precipitation  
Precipitation 0.00 in 0.07 in 0.59 in (1995)
Month to date precipitation 1.07  
Year to date precipitation 1.07  
Snow  
Snow 0.00 in 0.00 in 0.70 in (1966)
Month to date snowfall 0.1  
Since 1 July snowfall 0.4  
Snow Depth -    
Sea Level Pressure  
Sea Level Pressure 30.26 in    
Wind  
Wind Speed 8 mph (NW)    
Max Wind Speed 16 mph    
Max Gust Speed 26 mph    
Visibility 10 miles    
Events      
T = Trace of Precipitation, MM = Missing Value Source: NWS Daily Summary

Daily Weather History Graph

Daily Weather History Graph

Search for Another Location

Airport or City:

Trip Planner

Search our weather history database for the weather conditions in past years. The results will help you decide how hot, cold, wet, or windy it might be!

Date:

Astronomy

Jan. 17, 2014 Rise Set
Actual Time 7:28 AM CST 5:43 PM CST
Civil Twilight 7:01 AM CST 6:10 PM CST
Nautical Twilight 6:31 AM CST 6:40 PM CST
Astronomical Twilight 6:01 AM CST 7:10 PM CST
Moon 7:23 PM CST (1/17) 8:03 AM CST (1/17)
Length of Visible Light 11h 09m
Length of Day
10h 15m
Full, 98% of the Moon is Illuminated
Jan 17
Full
Jan 23
Last Quarter
Jan 30
New
Feb 6
First Quarter
Feb 14
Full

Hourly Weather History & Observations

Time (CST) Temp. Windchill Dew Point Humidity Pressure Visibility Wind Dir Wind Speed Gust Speed Precip Events Conditions
12:15 AM 46.9 °F - 16.7 °F 30% 30.17 in 10.0 mi NW 6.9 mph - N/A   Clear
12:35 AM 46.9 °F - 14.9 °F 28% 30.17 in 10.0 mi NW 8.1 mph - N/A   Mostly Cloudy
12:55 AM 46.4 °F 44.3 °F 14.7 °F 28% 30.17 in 10.0 mi NW 4.6 mph - N/A   Mostly Cloudy
1:15 AM 46.2 °F 43.3 °F 15.4 °F 29% 30.18 in 10.0 mi WNW 5.8 mph - N/A   Scattered Clouds
1:35 AM 45.9 °F 42.3 °F 17.4 °F 32% 30.18 in 10.0 mi WNW 6.9 mph - N/A   Clear
1:55 AM 46.9 °F - 16.9 °F 30% 30.18 in 10.0 mi WNW 5.8 mph - N/A   Clear
2:15 AM 47.7 °F - 15.8 °F 28% 30.19 in 10.0 mi WNW 5.8 mph - N/A   Scattered Clouds
2:35 AM 48.2 °F - 15.4 °F 27% 30.20 in 10.0 mi WNW 5.8 mph - N/A   Mostly Cloudy
2:55 AM 47.8 °F - 16.9 °F 29% 30.20 in 10.0 mi WNW 4.6 mph - N/A   Overcast
3:15 AM 48.2 °F - 16.7 °F 29% 30.21 in 10.0 mi NW 9.2 mph - N/A   Mostly Cloudy
3:35 AM 48.7 °F - 14.9 °F 26% 30.21 in 10.0 mi NW 9.2 mph - N/A   Mostly Cloudy
3:55 AM 48.9 °F - 14.5 °F 25% 30.22 in 10.0 mi NNW 9.2 mph - N/A   Scattered Clouds
4:15 AM 48.6 °F - 15.3 °F 26% 30.23 in 10.0 mi NNW 11.5 mph - N/A   Scattered Clouds
4:35 AM 47.8 °F - 16.3 °F 28% 30.24 in 10.0 mi NNW 10.4 mph - N/A   Scattered Clouds
4:55 AM 46.8 °F - 18.0 °F 32% 30.25 in 10.0 mi North 10.4 mph 16.1 mph N/A   Scattered Clouds
5:15 AM 45.7 °F 41.5 °F 18.1 °F 33% 30.26 in 10.0 mi North 8.1 mph - N/A   Scattered Clouds
5:35 AM 45.7 °F 39.1 °F 17.8 °F 33% 30.26 in 10.0 mi North 15.0 mph 18.4 mph N/A   Clear
5:55 AM 45.0 °F 38.5 °F 15.3 °F 30% 30.27 in 10.0 mi North 13.8 mph 26.5 mph N/A   Clear
6:15 AM 44.2 °F 38.8 °F 15.1 °F 31% 30.27 in 10.0 mi North 10.4 mph 18.4 mph N/A   Clear
6:35 AM 43.3 °F 37.2 °F 16.9 °F 35% 30.28 in 10.0 mi North 11.5 mph 19.6 mph N/A   Clear
6:55 AM 43.2 °F 37.0 °F 15.1 °F 32% 30.28 in 10.0 mi NNW 11.5 mph 17.3 mph N/A   Clear
7:15 AM 42.8 °F 37.0 °F 15.1 °F 33% 30.30 in 10.0 mi North 10.4 mph 18.4 mph N/A   Clear
7:35 AM 41.9 °F 36.9 °F 17.6 °F 38% 30.30 in 10.0 mi North 8.1 mph - N/A   Scattered Clouds
7:55 AM 41.9 °F 36.9 °F 16.3 °F 36% 30.31 in 10.0 mi North 8.1 mph - N/A   Overcast
8:15 AM 41.7 °F 36.7 °F 16.7 °F 36% 30.31 in 10.0 mi North 8.1 mph 16.1 mph N/A   Overcast
8:35 AM 41.5 °F 37.8 °F 17.8 °F 38% 30.32 in 10.0 mi North 5.8 mph - N/A   Overcast
8:55 AM 41.7 °F 36.7 °F 17.1 °F 37% 30.33 in 10.0 mi North 8.1 mph - N/A   Overcast
9:15 AM 42.4 °F 37.5 °F 18.5 °F 38% 30.34 in 10.0 mi North 8.1 mph - N/A   Mostly Cloudy
9:35 AM 43.0 °F 36.4 °F 17.8 °F 36% 30.34 in 10.0 mi North 12.7 mph 20.7 mph N/A   Scattered Clouds
9:55 AM 43.2 °F 37.4 °F 17.2 °F 35% 30.35 in 10.0 mi NNW 10.4 mph - N/A   Clear
10:15 AM 44.6 °F 38.8 °F 16.0 °F 32% 30.35 in 10.0 mi North 11.5 mph 17.3 mph N/A   Clear
10:35 AM 45.1 °F 39.5 °F 16.7 °F 32% 30.36 in 10.0 mi North 11.5 mph - N/A   Clear
10:55 AM 46.2 °F 40.5 °F 15.1 °F 29% 30.36 in 10.0 mi North 12.7 mph 20.7 mph N/A   Clear
11:15 AM 46.2 °F 41.2 °F 14.9 °F 28% 30.36 in 10.0 mi North 10.4 mph 16.1 mph N/A   Clear
11:35 AM 46.2 °F 40.1 °F 13.8 °F 27% 30.35 in 10.0 mi North 13.8 mph 18.4 mph N/A   Clear
11:55 AM 47.5 °F - 13.5 °F 26% 30.34 in 10.0 mi NNW 16.1 mph 19.6 mph N/A   Clear
12:15 PM 48.4 °F - 13.3 °F 24% 30.33 in 10.0 mi NNW 9.2 mph 16.1 mph N/A   Clear
12:35 PM 48.6 °F - 12.7 °F 24% 30.31 in 10.0 mi NNW 12.7 mph 19.6 mph N/A   Clear
12:55 PM 49.1 °F - 12.7 °F 23% 30.30 in 10.0 mi NW 11.5 mph 20.7 mph N/A   Clear
1:15 PM 49.5 °F - 12.6 °F 23% 30.29 in 10.0 mi NNW 11.5 mph 16.1 mph N/A   Clear
1:35 PM 50.2 °F - 12.9 °F 23% 30.28 in 10.0 mi NW 11.5 mph 17.3 mph N/A   Clear
1:55 PM 50.5 °F - 12.9 °F 22% 30.27 in 10.0 mi NNW 12.7 mph 16.1 mph N/A   Clear
2:15 PM 50.2 °F - 12.0 °F 22% 30.26 in 10.0 mi NNW 10.4 mph - N/A   Clear
2:35 PM 51.3 °F - 12.2 °F 21% 30.26 in 10.0 mi WNW 10.4 mph 19.6 mph N/A   Clear
2:55 PM 51.6 °F - 11.5 °F 20% 30.26 in 10.0 mi West 12.7 mph 18.4 mph N/A   Clear
3:15 PM 51.8 °F - 10.6 °F 19% 30.26 in 10.0 mi NW 11.5 mph - N/A   Clear
3:35 PM 51.6 °F - 10.9 °F 20% 30.26 in 10.0 mi NW 9.2 mph - N/A   Clear
3:55 PM 51.3 °F - 11.5 °F 20% 30.25 in 10.0 mi NNW 4.6 mph - N/A   Clear
4:15 PM 51.8 °F - 12.4 °F 21% 30.25 in 10.0 mi WNW 10.4 mph - N/A   Clear
4:35 PM 51.8 °F - 11.5 °F 20% 30.25 in 10.0 mi NW 10.4 mph - N/A   Clear
4:55 PM 51.3 °F - 12.0 °F 21% 30.25 in 10.0 mi WNW 6.9 mph - N/A   Clear
5:15 PM 50.5 °F - 12.0 °F 21% 30.25 in 10.0 mi NNW 8.1 mph - N/A   Clear
5:35 PM 49.5 °F - 12.4 °F 23% 30.25 in 10.0 mi NW 6.9 mph - N/A   Clear
5:55 PM 48.0 °F - 12.6 °F 24% 30.25 in 10.0 mi NNW 4.6 mph - N/A   Clear
6:15 PM 46.8 °F - 14.2 °F 27% 30.25 in 10.0 mi Calm Calm - N/A   Clear
6:35 PM 43.5 °F - 15.8 °F 33% 30.25 in 10.0 mi Calm Calm - N/A   Clear
6:55 PM 43.5 °F - 15.4 °F 32% 30.25 in 10.0 mi Calm Calm - N/A   Clear
7:15 PM 41.4 °F - 15.3 °F 35% 30.25 in 10.0 mi Calm Calm - N/A   Clear
7:35 PM 45.5 °F - 12.9 °F 27% 30.25 in 10.0 mi Calm Calm - N/A   Clear
7:55 PM 46.0 °F - 13.1 °F 27% 30.25 in 10.0 mi Calm Calm - N/A   Clear
8:15 PM 40.5 °F - 15.3 °F 36% 30.25 in 10.0 mi Calm Calm - N/A   Clear
8:35 PM 42.1 °F 40.2 °F 16.5 °F 36% 30.24 in 10.0 mi South 3.5 mph - N/A   Clear
8:55 PM 39.6 °F 34.7 °F 18.1 °F 42% 30.24 in 10.0 mi South 6.9 mph - N/A   Clear
9:15 PM 38.8 °F 33.8 °F 18.3 °F 44% 30.24 in 10.0 mi South 6.9 mph - N/A   Clear
9:35 PM 39.7 °F 35.6 °F 16.9 °F 40% 30.24 in 10.0 mi South 5.8 mph - N/A   Clear
9:55 PM 39.2 °F 35.0 °F 17.2 °F 41% 30.23 in 10.0 mi South 5.8 mph - N/A   Clear
10:15 PM 38.7 °F 34.3 °F 17.4 °F 42% 30.22 in 10.0 mi South 5.8 mph - N/A   Clear
10:35 PM 38.8 °F 33.8 °F 16.7 °F 41% 30.22 in 10.0 mi South 6.9 mph - N/A   Clear
10:55 PM 38.3 °F 33.2 °F 16.7 °F 42% 30.22 in 10.0 mi South 6.9 mph - N/A   Clear
11:15 PM 39.4 °F 34.5 °F 15.8 °F 38% 30.21 in 10.0 mi SSE 6.9 mph - N/A   Clear
11:35 PM 38.5 °F 33.4 °F 16.7 °F 41% 30.20 in 10.0 mi South 6.9 mph - N/A   Clear
11:55 PM 37.6 °F 32.3 °F 17.4 °F 44% 30.20 in 10.0 mi South 6.9 mph - N/A   Clear